OBJECT BS, 43822

Orbit data source: Space-Track

You're viewing an Uncataloged Satellite

Recently launched and/or uncataloged satellites may have evolving metadata. Metadata may include but not limited to: Owner, Maufacturer, Bus, Motor, and Mission.

OBJECT BS, 43822 is a satellite in SSO that was launched on Mon, 03 Dec 2018 UTC via an FALCON 9 launch vehicle from the Air Force Western Test Range (AFWTR). Unknown objects in Earth's orbit typically refer to objects detected orbiting the Earth but have not yet been identified or cataloged. These objects could be anything from previously untracked satellites, spent rocket stages, debris from satellite collisions, or even natural meteoroids temporarily captured by Earth's gravity.

Loading next visibility...
Identifier
43822, 2018-099BS
Orbit
SSO
Country
Flag of TBDTBD
Related business
None
Manufacturer
Korea AeU
Mission
Amateur Technology
Bus & Motor
CUBESAT 2U, Unknown motor
Mass
2 kg wet, 2 kg dry
Launch date (UTC)
2018-12-03 (7 years ago)
Launch vehicle
FALCON 9
Launch site
Air Force Western Test Range (AFWTR)
Object type
Unknown
Shape & HBR
Box, 0.3 m
Radar Cross Section
0.025 m², Small (<0.1 m²)

Expand to show TLE details & history
Last TLE update: 17 hours ago

TLE from 17 hours ago
0 OBJECT BS
1 43822U 18099BS  25260.05352514  .00004674  00000-0  28421-3 0  9997
2 43822  97.4757 311.3431 0007831 203.8027 156.2842 15.10907901364922
Epoch: 2025-09-17T01:17Z
TLE epoch observation values (Epoch: 2025-09-17T01:17:04.572Z)
Latitude
0.00001°
Longitude
-64.16095°
Altitude
541.463 km
Speed
7.589 km/s
True Right ascension
20h 45m 22s
True Declination
0° 00' 00"
Sunlit
Object was in full shadow at epoch
Visualization orbit readout
Latitude
Unknown
Longitude
Unknown
Altitude
Unknown
Speed
Unknown
Apparent Right ascension
Unknown
Apparent Declination
Unknown
Sunlit
N/A
Visualization observer readout
Local Sidereal Time
11:33:16
Azimuth
Unknown
Elevation
Unknown
Doppler factor
Unknown
Orbital elements
Apogee altitude
535.821 km
Perigee altitude
525.001 km
Semi-major axis
6,908.548 km
Eccentricity
0.00078
Inclination
97.4757°
RAAN
311.3431°
Arg. of periapsis
203.8027°
True anomaly
156.32026°
Mean anomaly
156.2842°
Eccentric anomaly
156.30223°
Mean motion
3.77975 °/min
Orbital period
95.24 mins
BSTAR
0.00028421
Loading maneuver chart data...
Computing Atmospheric mass density...
Loading historical data...
Loading historical data...
Loading historical data...
Loading historical data...
Loading historical data...
Loading historical data...
Loading historical data...

Documentation

Showing up to 5 results
|